Tracking 19286 objects as of 18-Nov-2018
HD Live streaming from Space Station
objects crossing your sky now

COSMOS 1289

Track COSMOS 1289 now!
10-day predictions
COSMOS 1289 is classified as:


NORAD ID: 12638
Int'l Code: 1981-074C
Perigee: 1,432.3 km
Apogee: 1,472.0 km
Inclination: 74.0 °
Period: 114.8 minutes
Semi major axis: 7823 km
RCS: 0.7098 m2 (medium)
Launch date: August 6, 1981
Source: Commonwealth of Independent States (former USSR) (CIS)
Launch site: PLESETSK MISSILE AND SPACE COMPLEX (PKMTR)
aabbcc
Your satellite tracking list
Your tracking list is empty




NASA's NSSDC Master Catalog

Two Line Element Set (TLE):
1 12638U 81074C   18322.24233887 -.00000020  00000-0 -25744-4 0  9993
2 12638  74.0329 253.3649 0025378 324.9300 143.5743 12.54676501707889
Source of the keplerian elements: AFSPC